Weather History for Kimball, NE

Change the Weather History Date:

Saturday, February 9, 2013

  Actual Average (KSNY) Record (KSNY)
Temperature  
Mean Temperature 28 °F 31 °F  
Max Temperature 34 °F 44 °F 70 °F (1954)
Min Temperature 22 °F 18 °F -23 °F (1982)
Degree Days  
Heating Degree Days 37 34  
Month to date heating degree days 314  
Since 1 July heating degree days 3971  
Cooling Degree Days 0 0  
Month to date cooling degree days 0  
Year to date cooling degree days 0  
Moisture  
Dew Point 22 °F    
Average Humidity 82    
Maximum Humidity 91    
Minimum Humidity 67    
Precipitation  
Precipitation 0.00 in 0.01 in 0.31 in (1953)
Month to date precipitation 0.08  
Year to date precipitation 0.28  
Sea Level Pressure  
Sea Level Pressure 29.59 in    
Wind  
Wind Speed 11 mph (North)    
Max Wind Speed 24 mph    
Max Gust Speed 31 mph    
Visibility 10 miles    
Events Snow    
T = Trace of Precipitation, MM = Missing Value Source: NWS Daily Summary

Daily Weather History Graph

Daily Weather History Graph

Search for Another Location

Airport:

Trip Planner

Search our weather history database for the weather conditions in past years. The results will help you decide how hot, cold, wet, or windy it might be!

Date:

Astronomy

Feb. 09, 2013 Rise Set
Actual Time 7:56 AM CST 6:21 PM CST
Civil Twilight 7:27 AM CST 6:50 PM CST
Nautical Twilight 6:55 AM CST 7:23 PM CST
Astronomical Twilight 6:23 AM CST 7:55 PM CST
Moon 7:09 AM CST (2/9) 6:07 PM CST (2/9)
Length of Visible Light 11h 22m
Length of Day
10h 25m
Waning Crescent, 0% of the Moon is Illuminated
Feb 9
Waning Crescent
Feb 10
New
Feb 17
First Quarter
Feb 25
Full
Mar 4
Last Quarter

Hourly Weather History & Observations

Time (CST) Temp. Windchill Dew Point Humidity Pressure Visibility Wind Dir Wind Speed Gust Speed Precip Events Conditions
12:15 AM 27.3 °F 20.9 °F 17.8 °F 67% 29.66 in 10.0 mi SSW 5.8 mph - N/A   Clear
12:35 AM 22.1 °F 14.7 °F 15.8 °F 77% 29.66 in 10.0 mi West 5.8 mph - N/A   Clear
12:55 AM 23.4 °F 17.4 °F 16.2 °F 74% 29.66 in 10.0 mi WNW 4.6 mph - N/A   Clear
1:15 AM 22.1 °F 14.7 °F 16.0 °F 77% 29.66 in 10.0 mi WNW 5.8 mph - N/A   Clear
1:35 AM 22.1 °F 13.7 °F 17.1 °F 81% 29.67 in 10.0 mi WNW 6.9 mph - N/A   Clear
1:55 AM 22.8 °F 12.9 °F 17.4 °F 80% 29.66 in 10.0 mi WNW 9.2 mph - N/A   Clear
2:15 AM 23.2 °F 13.3 °F 17.4 °F 79% 29.68 in 10.0 mi WNW 9.2 mph - N/A   Clear
2:35 AM 24.3 °F 13.9 °F 17.4 °F 75% 29.68 in 10.0 mi NW 10.4 mph - N/A   Clear
2:55 AM 23.9 °F 14.2 °F 17.4 °F 76% 29.68 in 10.0 mi NW 9.2 mph - N/A   Clear
3:15 AM 23.7 °F 14.7 °F 17.8 °F 78% 29.68 in 10.0 mi NW 8.1 mph - N/A   Clear
3:35 AM 24.8 °F 15.3 °F 18.7 °F 78% 29.68 in 10.0 mi NW 9.2 mph - N/A   Clear
3:55 AM 24.8 °F 13.4 °F 19.2 °F 79% 29.68 in 10.0 mi NW 12.7 mph 17.3 mph N/A   Clear
4:15 AM 24.6 °F 13.2 °F 19.4 °F 81% 29.67 in 10.0 mi NNW 12.7 mph - N/A   Clear
4:35 AM 24.8 °F 12.9 °F 19.4 °F 80% 29.66 in 10.0 mi NNW 13.8 mph - N/A   Clear
4:55 AM 24.8 °F 12.9 °F 19.4 °F 80% 29.66 in 10.0 mi NNW 13.8 mph - N/A   Clear
5:15 AM 24.8 °F 12.4 °F 19.4 °F 80% 29.66 in 10.0 mi NNW 15.0 mph 21.9 mph N/A   Clear
5:35 AM 24.3 °F 12.7 °F 19.4 °F 82% 29.66 in 10.0 mi NNW 12.7 mph - N/A   Clear
5:55 AM 23.9 °F 12.3 °F 19.4 °F 83% 29.66 in 10.0 mi NNW 12.7 mph 18.4 mph N/A   Clear
6:15 AM 23.7 °F 11.5 °F 20.1 °F 86% 29.66 in 10.0 mi NNW 13.8 mph - N/A   Clear
6:35 AM 23.9 °F 12.9 °F 20.3 °F 86% 29.66 in 10.0 mi North 11.5 mph - N/A   Clear
6:55 AM 23.4 °F 13.5 °F 20.3 °F 88% 29.66 in 10.0 mi NNW 9.2 mph 16.1 mph N/A   Clear
7:15 AM 23.4 °F 12.8 °F 20.3 °F 88% 29.66 in 10.0 mi North 10.4 mph - N/A   Clear
7:35 AM 22.5 °F 12.4 °F 19.8 °F 89% 29.66 in 10.0 mi NNW 9.2 mph - N/A   Clear
7:55 AM 22.8 °F 12.2 °F 20.3 °F 90% 29.67 in 10.0 mi North 10.4 mph 16.1 mph N/A   Clear
8:15 AM 23.9 °F 13.5 °F 21.2 °F 89% 29.67 in 10.0 mi North 10.4 mph - N/A   Mostly Cloudy
8:35 AM 24.6 °F 13.8 °F 22.1 °F 90% 29.67 in 10.0 mi North 11.5 mph - N/A   Overcast
8:55 AM 25.5 °F 12.4 °F 23.0 °F 90% 29.66 in 10.0 mi North 17.3 mph 20.7 mph N/A   Overcast
9:15 AM 25.7 °F 15.1 °F 23.4 °F 91% 29.66 in 10.0 mi North 11.5 mph - N/A   Overcast
9:35 AM 26.2 °F 14.2 °F 23.7 °F 90% 29.66 in 10.0 mi North 15.0 mph - N/A   Overcast
9:55 AM 26.6 °F 15.7 °F 23.9 °F 90% 29.65 in 10.0 mi North 12.7 mph 18.4 mph N/A   Overcast
10:15 AM 27.5 °F 15.9 °F 23.7 °F 86% 29.64 in 10.0 mi North 15.0 mph 21.9 mph N/A   Overcast
10:35 AM 28.8 °F 16.6 °F 23.9 °F 82% 29.62 in 10.0 mi North 17.3 mph - N/A   Overcast
10:55 AM 31.3 °F 20.3 °F 24.3 °F 75% 29.61 in 10.0 mi North 16.1 mph 21.9 mph N/A   Mostly Cloudy
11:15 AM 32.2 °F 21.8 °F 24.3 °F 73% 29.61 in 10.0 mi North 15.0 mph - N/A   Scattered Clouds
11:35 AM 33.4 °F 22.7 °F 24.4 °F 70% 29.61 in 10.0 mi North 17.3 mph - N/A   Scattered Clouds
11:55 AM 34.2 °F 24.0 °F 24.3 °F 67% 29.61 in 10.0 mi North 16.1 mph 20.7 mph N/A   Scattered Clouds
12:15 PM 33.4 °F 23.9 °F 24.1 °F 69% 29.59 in 10.0 mi NNE 13.8 mph - N/A   Mostly Cloudy
12:35 PM 34.2 °F 24.4 °F 24.1 °F 67% 29.57 in 10.0 mi North 15.0 mph 20.7 mph N/A   Mostly Cloudy
12:55 PM 33.1 °F 23.9 °F 24.1 °F 70% 29.57 in 10.0 mi NNE 12.7 mph - N/A   Mostly Cloudy
1:15 PM 32.9 °F 23.2 °F 23.9 °F 69% 29.55 in 10.0 mi North 13.8 mph 18.4 mph N/A   Overcast
1:35 PM 32.5 °F 21.9 °F 23.9 °F 70% 29.54 in 10.0 mi NNE 16.1 mph - N/A   Overcast
1:55 PM 32.0 °F 22.1 °F 23.9 °F 72% 29.53 in 10.0 mi NE 13.8 mph - N/A   Overcast
2:15 PM 32.0 °F 22.1 °F 23.9 °F 72% 29.53 in 10.0 mi NNE 13.8 mph - N/A   Overcast
2:35 PM 32.0 °F 22.5 °F 24.1 °F 73% 29.52 in 10.0 mi NNE 12.7 mph - N/A   Overcast
2:55 PM 31.3 °F 21.6 °F 23.9 °F 74% 29.52 in 10.0 mi NNE 12.7 mph - N/A   Overcast
3:15 PM 31.1 °F 21.4 °F 24.3 °F 76% 29.52 in 10.0 mi NE 12.7 mph - N/A   Overcast
3:35 PM 30.7 °F 21.4 °F 24.3 °F 77% 29.53 in 10.0 mi ENE 11.5 mph - N/A   Overcast
3:55 PM 29.1 °F 22.1 °F 24.4 °F 83% 29.54 in 10.0 mi East 6.9 mph - N/A   Overcast
4:15 PM 29.1 °F 23.0 °F 24.8 °F 84% 29.54 in 10.0 mi East 5.8 mph - N/A   Overcast
4:35 PM 29.3 °F 24.3 °F 24.8 °F 83% 29.53 in 10.0 mi NE 4.6 mph - N/A   Overcast
4:55 PM 29.1 °F 22.1 °F 25.2 °F 85% 29.53 in 10.0 mi North 6.9 mph - N/A   Overcast
5:15 PM 29.1 °F 20.6 °F 24.8 °F 84% 29.53 in 10.0 mi North 9.2 mph - N/A   Overcast
5:35 PM 28.9 °F 19.2 °F 24.8 °F 84% 29.51 in 10.0 mi North 11.5 mph - N/A   Overcast
5:55 PM 28.4 °F 18.0 °F 24.8 °F 86% 29.51 in 10.0 mi North 12.7 mph - N/A   Overcast
6:15 PM 28.0 °F 16.1 °F 24.1 °F 85% 29.51 in 10.0 mi North 16.1 mph 19.6 mph N/A   Overcast
6:35 PM 27.1 °F 14.9 °F 23.7 °F 87% 29.51 in 10.0 mi North 16.1 mph - N/A   Overcast
6:55 PM 26.6 °F 13.8 °F 23.0 °F 86% 29.51 in 10.0 mi North 17.3 mph - N/A   Overcast
7:35 PM 25.7 °F 14.6 °F 23.0 °F 89% 29.51 in 10.0 mi North 12.7 mph - N/A   Overcast
7:55 PM 25.9 °F 13.8 °F 23.0 °F 89% 29.51 in 10.0 mi North 15.0 mph - N/A   Overcast
8:15 PM 25.9 °F 12.5 °F 22.6 °F 88% 29.50 in 10.0 mi North 18.4 mph 26.5 mph N/A   Overcast
8:35 PM 25.7 °F 13.1 °F 22.8 °F 89% 29.49 in 10.0 mi North 16.1 mph 23.0 mph N/A   Overcast
8:55 PM 26.1 °F 13.6 °F 22.8 °F 88% 29.49 in 10.0 mi North 16.1 mph - N/A   Overcast
9:15 PM 25.7 °F 12.7 °F 22.5 °F 88% 29.49 in 10.0 mi North 17.3 mph 20.7 mph N/A   Overcast
9:35 PM 25.3 °F 12.2 °F 21.9 °F 87% 29.49 in 10.0 mi North 17.3 mph 21.9 mph N/A   Overcast
9:55 PM 24.6 °F 10.9 °F 21.0 °F 86% 29.48 in 10.0 mi North 18.4 mph - N/A   Overcast
10:15 PM 23.9 °F 9.9 °F 20.7 °F 87% 29.48 in 10.0 mi North 18.4 mph 24.2 mph N/A   Overcast
10:35 PM 23.5 °F 8.7 °F 20.5 °F 88% 29.48 in 2.5 mi North 20.7 mph 26.5 mph N/A Snow Light Snow
10:55 PM 23.9 °F 8.1 °F 21.2 °F 89% 29.47 in 3.0 mi NNW 24.2 mph 28.8 mph N/A Snow Light Snow
11:15 PM 24.3 °F 8.6 °F 21.4 °F 89% 29.48 in 2.5 mi NNW 24.2 mph 31.1 mph N/A Snow Light Snow
11:35 PM 24.8 °F 11.1 °F 21.9 °F 89% 29.48 in 3.0 mi NNW 18.4 mph 25.3 mph N/A Snow Light Snow
11:55 PM 25.0 °F 10.2 °F 21.9 °F 88% 29.48 in 4.0 mi NNW 21.9 mph 27.6 mph N/A Snow Light Snow